Time,TemperatureF,DewpointF,PressureIn,WindDirection,WindDirectionDegrees,WindSpeedMPH,WindSpeedGustMPH,Humidity,HourlyPrecipIn,Conditions,Clouds,dailyrainin,SoftwareType,DateUTC
2013-01-08 00:05:00,28.2,22.8,30.11,NE,45,0.0,0.0,80,0.00,,,-99.99,open2300 version1.11,2013-01-08 05:05:00,
2013-01-08 00:10:00,28.2,22.8,30.11,WSW,247,0.0,0.0,80,0.00,,,-99.99,open2300 version1.11,2013-01-08 05:10:00,
2013-01-08 00:15:00,28.2,22.8,30.11,WSW,247,0.0,0.0,80,0.00,,,-99.99,open2300 version1.11,2013-01-08 05:15:00,
2013-01-08 00:20:00,28.2,22.8,30.11,WSW,247,0.0,0.0,80,0.00,,,-99.99,open2300 version1.11,2013-01-08 05:20:00,
2013-01-08 00:25:00,28.2,22.8,30.11,WSW,247,0.0,0.0,80,0.00,,,-99.99,open2300 version1.11,2013-01-08 05:25:00,
2013-01-08 00:30:00,28.2,22.8,30.11,WSW,247,0.0,0.0,80,0.00,,,-99.99,open2300 version1.11,2013-01-08 05:30:00,
2013-01-08 00:35:00,28.2,22.8,30.11,SE,135,0.0,0.0,80,0.00,,,-99.99,open2300 version1.11,2013-01-08 05:35:00,
2013-01-08 00:45:00,28.2,22.8,30.11,WSW,247,0.0,0.0,80,0.00,,,-99.99,open2300 version1.11,2013-01-08 05:45:00,
2013-01-08 00:50:00,28.2,22.8,30.11,WSW,247,0.0,0.0,80,0.00,,,-99.99,open2300 version1.11,2013-01-08 05:50:00,
2013-01-08 00:55:00,28.2,22.8,30.11,WSW,247,0.0,0.0,80,0.00,,,-99.99,open2300 version1.11,2013-01-08 05:55:00,
2013-01-08 01:00:00,28.2,22.8,30.11,WSW,247,0.0,0.0,80,0.00,,,-99.99,open2300 version1.11,2013-01-08 06:00:00,
2013-01-08 01:05:00,28.2,22.8,30.11,WSW,247,0.0,0.0,80,0.00,,,-99.99,open2300 version1.11,2013-01-08 06:05:00,
2013-01-08 01:10:00,28.2,22.8,30.11,WSW,247,0.0,0.0,80,0.00,,,-99.99,open2300 version1.11,2013-01-08 06:10:00,
2013-01-08 01:15:00,28.2,22.8,30.11,WSW,247,0.0,0.0,80,0.00,,,-99.99,open2300 version1.11,2013-01-08 06:15:00,
2013-01-08 01:20:00,28.2,22.8,30.11,WSW,247,0.0,0.0,80,0.00,,,-99.99,open2300 version1.11,2013-01-08 06:20:00,
2013-01-08 01:25:00,28.0,22.6,30.11,WSW,247,0.0,0.0,80,0.00,,,-99.99,open2300 version1.11,2013-01-08 06:25:00,
2013-01-08 01:35:00,28.0,22.6,30.11,WSW,247,0.0,0.0,80,0.00,,,-99.99,open2300 version1.11,2013-01-08 06:35:00,
2013-01-08 01:40:00,27.7,22.3,30.11,WSW,247,0.0,0.0,80,0.00,,,-99.99,open2300 version1.11,2013-01-08 06:40:00,
2013-01-08 01:45:00,27.7,22.3,30.11,WSW,247,0.0,0.0,80,0.00,,,-99.99,open2300 version1.11,2013-01-08 06:45:00,
2013-01-08 01:50:00,27.7,22.0,30.11,WSW,247,0.0,0.0,79,0.00,,,-99.99,open2300 version1.11,2013-01-08 06:50:00,
2013-01-08 01:55:00,27.7,22.0,30.11,WSW,247,0.0,0.0,79,0.00,,,-99.99,open2300 version1.11,2013-01-08 06:55:00,
2013-01-08 02:00:00,27.7,22.0,30.11,WSW,247,0.0,0.0,79,0.00,,,-99.99,open2300 version1.11,2013-01-08 07:00:00,
2013-01-08 02:10:00,27.7,22.0,30.11,WSW,247,0.0,0.0,79,0.00,,,-99.99,open2300 version1.11,2013-01-08 07:10:00,
2013-01-08 02:15:00,27.7,22.0,30.11,WSW,247,0.0,0.0,79,0.00,,,-99.99,open2300 version1.11,2013-01-08 07:15:00,
2013-01-08 02:20:00,27.7,22.0,30.11,WSW,247,0.0,0.0,79,0.00,,,-99.99,open2300 version1.11,2013-01-08 07:20:00,
2013-01-08 02:30:00,27.9,22.5,30.11,WSW,247,0.0,0.0,80,0.00,,,-99.99,open2300 version1.11,2013-01-08 07:30:00,
2013-01-08 02:40:00,28.0,22.6,30.11,WSW,247,0.0,0.0,80,0.00,,,-99.99,open2300 version1.11,2013-01-08 07:40:00,
2013-01-08 02:45:00,28.0,22.6,30.11,WSW,247,0.0,0.0,80,0.00,,,-99.99,open2300 version1.11,2013-01-08 07:45:00,
2013-01-08 02:55:00,28.2,22.8,30.11,WSW,247,0.0,0.0,80,0.00,,,-99.99,open2300 version1.11,2013-01-08 07:55:00,
2013-01-08 03:00:00,28.0,22.6,30.11,WSW,247,0.0,0.0,80,0.00,,,-99.99,open2300 version1.11,2013-01-08 08:00:00,
2013-01-08 03:05:00,28.2,22.8,30.12,WSW,247,0.0,0.0,80,0.00,,,-99.99,open2300 version1.11,2013-01-08 08:05:00,
2013-01-08 03:10:00,28.2,22.8,30.11,WSW,247,0.0,0.0,80,0.00,,,-99.99,open2300 version1.11,2013-01-08 08:10:00,
2013-01-08 03:20:00,28.2,22.8,30.12,WSW,247,0.0,0.0,80,0.00,,,-99.99,open2300 version1.11,2013-01-08 08:20:00,
2013-01-08 03:30:00,28.2,22.8,30.12,WSW,247,0.0,0.0,80,0.00,,,-99.99,open2300 version1.11,2013-01-08 08:30:00,
2013-01-08 03:35:00,28.2,22.8,30.12,WSW,247,0.0,0.0,80,0.00,,,-99.99,open2300 version1.11,2013-01-08 08:35:00,
2013-01-08 03:45:00,28.2,22.8,30.12,WSW,247,0.0,0.0,80,0.00,,,-99.99,open2300 version1.11,2013-01-08 08:45:00,
2013-01-08 03:55:00,28.2,22.8,30.12,WSW,247,0.0,0.0,80,0.00,,,-99.99,open2300 version1.11,2013-01-08 08:55:00,
2013-01-08 04:00:00,28.2,22.8,30.12,WSW,247,0.0,0.0,80,0.00,,,-99.99,open2300 version1.11,2013-01-08 09:00:00,
2013-01-08 04:05:00,28.0,22.6,30.12,WSW,247,0.0,0.0,80,0.00,,,-99.99,open2300 version1.11,2013-01-08 09:05:00,
2013-01-08 04:15:00,28.0,22.6,30.12,WSW,247,0.0,0.0,80,0.00,,,-99.99,open2300 version1.11,2013-01-08 09:15:00,
2013-01-08 04:25:00,28.0,22.6,30.12,WSW,247,0.0,0.0,80,0.00,,,-99.99,open2300 version1.11,2013-01-08 09:25:00,
2013-01-08 04:30:00,27.9,22.5,30.12,WSW,247,0.0,0.0,80,0.00,,,-99.99,open2300 version1.11,2013-01-08 09:30:00,
2013-01-08 04:35:00,27.7,22.3,30.12,WSW,247,0.0,0.0,80,0.00,,,-99.99,open2300 version1.11,2013-01-08 09:35:00,
2013-01-08 04:40:00,27.7,22.0,30.12,WSW,247,0.0,0.0,79,0.00,,,-99.99,open2300 version1.11,2013-01-08 09:40:00,
2013-01-08 04:45:00,27.7,22.0,30.12,WSW,247,0.0,0.0,79,0.00,,,-99.99,open2300 version1.11,2013-01-08 09:45:00,
2013-01-08 04:50:00,27.7,22.0,30.12,WSW,247,0.0,0.0,79,0.00,,,-99.99,open2300 version1.11,2013-01-08 09:50:00,
2013-01-08 04:55:00,27.5,22.1,30.12,WSW,247,0.0,0.0,80,0.00,,,-99.99,open2300 version1.11,2013-01-08 09:55:00,
2013-01-08 05:00:00,27.5,22.1,30.12,WSW,247,0.0,0.0,80,0.00,,,-99.99,open2300 version1.11,2013-01-08 10:00:00,
2013-01-08 05:10:00,27.1,21.7,30.12,WSW,247,0.0,0.0,80,0.00,,,-99.99,open2300 version1.11,2013-01-08 10:10:00,
2013-01-08 05:15:00,27.1,21.7,30.12,WSW,247,0.0,0.0,80,0.00,,,-99.99,open2300 version1.11,2013-01-08 10:15:00,
2013-01-08 05:20:00,26.8,21.4,30.12,WSW,247,0.0,0.0,80,0.00,,,-99.99,open2300 version1.11,2013-01-08 10:20:00,
2013-01-08 05:30:00,26.6,21.2,30.13,WSW,247,0.0,0.0,80,0.00,,,-99.99,open2300 version1.11,2013-01-08 10:30:00,
2013-01-08 05:40:00,26.4,21.0,30.13,WSW,247,0.0,0.0,80,0.00,,,-99.99,open2300 version1.11,2013-01-08 10:40:00,
2013-01-08 05:45:00,26.2,20.9,30.12,WSW,247,0.0,0.0,80,0.00,,,-99.99,open2300 version1.11,2013-01-08 10:45:00,
2013-01-08 05:55:00,26.2,20.9,30.12,WSW,247,0.0,0.0,80,0.00,,,-99.99,open2300 version1.11,2013-01-08 10:55:00,
2013-01-08 06:00:00,26.1,20.7,30.12,WSW,247,0.0,0.0,80,0.00,,,-99.99,open2300 version1.11,2013-01-08 11:00:00,
2013-01-08 06:10:00,25.9,20.8,30.12,WSW,247,0.0,0.0,81,0.00,,,-99.99,open2300 version1.11,2013-01-08 11:10:00,
2013-01-08 06:20:00,25.7,20.7,30.13,WSW,247,0.0,0.0,81,0.00,,,-99.99,open2300 version1.11,2013-01-08 11:20:00,
2013-01-08 06:30:00,25.5,20.5,30.13,WSW,247,0.0,0.0,81,0.00,,,-99.99,open2300 version1.11,2013-01-08 11:30:00,
2013-01-08 06:35:00,25.5,20.5,30.13,WSW,247,0.0,0.0,81,0.00,,,-99.99,open2300 version1.11,2013-01-08 11:35:00,
2013-01-08 06:40:00,25.3,20.3,30.13,WSW,247,0.0,0.0,81,0.00,,,-99.99,open2300 version1.11,2013-01-08 11:40:00,
2013-01-08 06:50:00,25.0,20.0,30.13,WSW,247,0.0,0.0,81,0.00,,,-99.99,open2300 version1.11,2013-01-08 11:50:00,
2013-01-08 06:55:00,25.0,20.0,30.13,WSW,247,0.0,0.0,81,0.00,,,-99.99,open2300 version1.11,2013-01-08 11:55:00,
2013-01-08 07:05:00,24.6,19.7,30.13,WSW,247,0.0,0.0,81,0.00,,,-99.99,open2300 version1.11,2013-01-08 12:05:00,
2013-01-08 07:10:00,24.6,19.7,30.14,WSW,247,0.0,0.0,81,0.00,,,-99.99,open2300 version1.11,2013-01-08 12:10:00,
2013-01-08 07:15:00,24.6,19.9,30.14,WSW,247,0.0,0.0,82,0.00,,,-99.99,open2300 version1.11,2013-01-08 12:15:00,
2013-01-08 07:20:00,24.6,19.9,30.14,WSW,247,0.0,0.0,82,0.00,,,-99.99,open2300 version1.11,2013-01-08 12:20:00,
2013-01-08 07:25:00,24.6,19.9,30.14,WSW,247,0.0,0.0,82,0.00,,,-99.99,open2300 version1.11,2013-01-08 12:25:00,
2013-01-08 07:30:00,24.4,19.8,30.15,WSW,247,0.0,0.0,82,0.00,,,-99.99,open2300 version1.11,2013-01-08 12:30:00,
2013-01-08 07:35:00,24.3,19.6,30.15,WSW,247,0.0,0.0,82,0.00,,,-99.99,open2300 version1.11,2013-01-08 12:35:00,
2013-01-08 07:40:00,24.1,19.4,30.15,WSW,247,0.0,0.0,82,0.00,,,-99.99,open2300 version1.11,2013-01-08 12:40:00,
2013-01-08 07:45:00,24.1,19.4,30.16,WSW,247,0.0,0.0,82,0.00,,,-99.99,open2300 version1.11,2013-01-08 12:45:00,
2013-01-08 07:55:00,23.7,19.0,30.16,WSW,247,0.0,0.0,82,0.00,,,-99.99,open2300 version1.11,2013-01-08 12:55:00,
2013-01-08 08:00:00,23.7,19.0,30.16,WSW,247,0.0,0.0,82,0.00,,,-99.99,open2300 version1.11,2013-01-08 13:00:00,
2013-01-08 08:05:00,23.9,19.2,30.17,WSW,247,0.0,0.0,82,0.00,,,-99.99,open2300 version1.11,2013-01-08 13:05:00,
2013-01-08 08:10:00,23.7,19.0,30.17,WSW,247,0.0,0.0,82,0.00,,,-99.99,open2300 version1.11,2013-01-08 13:10:00,
2013-01-08 08:20:00,23.9,19.5,30.17,WSW,247,0.0,0.0,83,0.00,,,-99.99,open2300 version1.11,2013-01-08 13:20:00,
2013-01-08 08:25:00,23.7,19.3,30.17,WSW,247,0.0,0.0,83,0.00,,,-99.99,open2300 version1.11,2013-01-08 13:25:00,
2013-01-08 08:30:00,23.9,19.5,30.17,WSW,247,0.0,0.0,83,0.00,,,-99.99,open2300 version1.11,2013-01-08 13:30:00,
2013-01-08 08:35:00,24.1,19.7,30.17,WSW,247,0.0,0.0,83,0.00,,,-99.99,open2300 version1.11,2013-01-08 13:35:00,
2013-01-08 08:40:00,24.1,19.7,30.18,WSW,247,0.0,0.0,83,0.00,,,-99.99,open2300 version1.11,2013-01-08 13:40:00,
2013-01-08 08:50:00,24.4,20.0,30.17,WSW,247,0.0,0.0,83,0.00,,,-99.99,open2300 version1.11,2013-01-08 13:50:00,
2013-01-08 09:00:00,25.0,20.6,30.18,WSW,247,0.0,0.0,83,0.00,,,-99.99,open2300 version1.11,2013-01-08 14:00:00,
2013-01-08 09:05:00,25.2,20.7,30.18,WSW,247,0.0,0.0,83,0.00,,,-99.99,open2300 version1.11,2013-01-08 14:05:00,
2013-01-08 09:10:00,25.3,20.9,30.18,WSW,247,0.0,0.0,83,0.00,,,-99.99,open2300 version1.11,2013-01-08 14:10:00,
2013-01-08 09:15:00,25.5,21.3,30.18,WSW,247,0.0,0.0,84,0.00,,,-99.99,open2300 version1.11,2013-01-08 14:15:00,
2013-01-08 09:20:00,25.7,21.5,30.18,WSW,247,0.0,0.0,84,0.00,,,-99.99,open2300 version1.11,2013-01-08 14:20:00,
2013-01-08 09:25:00,26.1,21.8,30.18,WSW,247,0.0,0.0,84,0.00,,,-99.99,open2300 version1.11,2013-01-08 14:25:00,
2013-01-08 09:35:00,26.6,22.1,30.18,WSW,247,0.0,0.0,83,0.00,,,-99.99,open2300 version1.11,2013-01-08 14:35:00,
2013-01-08 09:40:00,27.1,22.6,30.18,WSW,247,0.0,0.0,83,0.00,,,-99.99,open2300 version1.11,2013-01-08 14:40:00,
2013-01-08 09:45:00,27.1,22.6,30.19,SSW,202,0.0,0.0,83,0.00,,,-99.99,open2300 version1.11,2013-01-08 14:45:00,
2013-01-08 09:50:00,27.7,23.1,30.19,SSW,202,0.0,0.0,83,0.00,,,-99.99,open2300 version1.11,2013-01-08 14:50:00,
2013-01-08 09:55:00,28.0,23.5,30.19,SSW,202,0.0,0.0,83,0.00,,,-99.99,open2300 version1.11,2013-01-08 14:55:00,
2013-01-08 10:05:00,28.6,24.0,30.19,SSW,202,0.0,0.0,83,0.00,,,-99.99,open2300 version1.11,2013-01-08 15:05:00,
2013-01-08 10:10:00,28.9,24.4,30.19,SSW,202,0.0,0.0,83,0.00,,,-99.99,open2300 version1.11,2013-01-08 15:10:00,
2013-01-08 10:15:00,29.5,24.9,30.19,SSW,202,0.0,0.0,83,0.00,,,-99.99,open2300 version1.11,2013-01-08 15:15:00,
2013-01-08 10:20:00,30.0,25.2,30.19,SSW,202,0.0,0.0,82,0.00,,,-99.99,open2300 version1.11,2013-01-08 15:20:00,
2013-01-08 10:25:00,30.2,25.4,30.19,SSW,202,0.0,0.0,82,0.00,,,-99.99,open2300 version1.11,2013-01-08 15:25:00,
2013-01-08 10:35:00,31.1,26.0,30.19,SSW,202,0.0,0.0,81,0.00,,,-99.99,open2300 version1.11,2013-01-08 15:35:00,
2013-01-08 10:40:00,31.6,26.5,30.19,SSW,202,0.0,0.0,81,0.00,,,-99.99,open2300 version1.11,2013-01-08 15:40:00,
2013-01-08 10:45:00,32.2,27.1,30.19,SSW,202,0.0,0.0,81,0.00,,,-99.99,open2300 version1.11,2013-01-08 15:45:00,
2013-01-08 10:50:00,32.7,27.2,30.19,SSW,202,0.0,0.0,80,0.00,,,-99.99,open2300 version1.11,2013-01-08 15:50:00,
2013-01-08 11:00:00,33.6,27.7,30.18,SSW,202,0.0,0.0,79,0.00,,,-99.99,open2300 version1.11,2013-01-08 16:00:00,
2013-01-08 11:05:00,34.0,28.1,30.19,SSW,202,0.0,0.0,79,0.00,,,-99.99,open2300 version1.11,2013-01-08 16:05:00,
2013-01-08 11:10:00,34.3,28.1,30.19,SSW,202,0.0,0.0,78,0.00,,,-99.99,open2300 version1.11,2013-01-08 16:10:00,
2013-01-08 11:15:00,34.9,28.3,30.19,SSW,202,0.0,0.0,77,0.00,,,-99.99,open2300 version1.11,2013-01-08 16:15:00,
2013-01-08 11:20:00,35.4,28.9,30.19,SSW,202,0.0,0.0,77,0.00,,,-99.99,open2300 version1.11,2013-01-08 16:20:00,
2013-01-08 11:25:00,35.8,29.2,30.19,SE,135,0.0,0.0,77,0.00,,,-99.99,open2300 version1.11,2013-01-08 16:25:00,
2013-01-08 11:30:00,36.1,29.3,30.18,SE,135,0.3,2.7,76,0.00,,,-99.99,open2300 version1.11,2013-01-08 16:30:00,
2013-01-08 11:35:00,36.3,29.1,30.18,ESE,112,0.0,1.6,75,0.00,,,-99.99,open2300 version1.11,2013-01-08 16:35:00,
2013-01-08 11:45:00,36.7,29.2,30.18,ESE,112,0.0,0.0,74,0.00,,,-99.99,open2300 version1.11,2013-01-08 16:45:00,
2013-01-08 11:50:00,36.7,29.2,30.18,South,180,0.0,0.0,74,0.00,,,-99.99,open2300 version1.11,2013-01-08 16:50:00,
2013-01-08 11:55:00,36.7,29.2,30.18,South,180,0.0,0.0,74,0.00,,,-99.99,open2300 version1.11,2013-01-08 16:55:00,
2013-01-08 12:00:00,36.7,29.2,30.18,SE,135,0.1,1.8,74,0.00,,,-99.99,open2300 version1.11,2013-01-08 17:00:00,
2013-01-08 12:05:00,36.7,28.8,30.18,SSE,157,0.0,0.0,73,0.00,,,-99.99,open2300 version1.11,2013-01-08 17:05:00,
2013-01-08 12:10:00,36.9,29.0,30.18,SE,135,0.0,0.0,73,0.00,,,-99.99,open2300 version1.11,2013-01-08 17:10:00,
2013-01-08 12:15:00,36.9,29.0,30.17,SE,135,0.0,0.0,73,0.00,,,-99.99,open2300 version1.11,2013-01-08 17:15:00,
2013-01-08 12:20:00,37.2,29.4,30.17,SE,135,0.0,0.0,73,0.00,,,-99.99,open2300 version1.11,2013-01-08 17:20:00,
2013-01-08 12:25:00,37.0,29.2,30.17,SE,135,0.0,0.0,73,0.00,,,-99.99,open2300 version1.11,2013-01-08 17:25:00,
2013-01-08 12:30:00,37.2,29.4,30.17,SE,135,0.0,0.0,73,0.00,,,-99.99,open2300 version1.11,2013-01-08 17:30:00,
2013-01-08 12:40:00,37.4,29.2,30.17,SE,135,0.0,1.6,72,0.00,,,-99.99,open2300 version1.11,2013-01-08 17:40:00,
2013-01-08 12:45:00,37.2,28.7,30.17,SE,135,0.0,0.0,71,0.00,,,-99.99,open2300 version1.11,2013-01-08 17:45:00,
2013-01-08 12:50:00,37.2,28.7,30.16,SE,135,0.1,3.4,71,0.00,,,-99.99,open2300 version1.11,2013-01-08 17:50:00,
2013-01-08 12:55:00,37.2,28.7,30.16,SSE,157,0.0,0.0,71,0.00,,,-99.99,open2300 version1.11,2013-01-08 17:55:00,
2013-01-08 13:00:00,37.2,28.7,30.16,SSE,157,0.0,0.0,71,0.00,,,-99.99,open2300 version1.11,2013-01-08 18:00:00,
2013-01-08 13:05:00,37.2,28.7,30.16,SE,135,0.1,1.8,71,0.00,,,-99.99,open2300 version1.11,2013-01-08 18:05:00,
2013-01-08 13:10:00,37.2,29.1,30.16,SE,135,0.0,0.0,72,0.00,,,-99.99,open2300 version1.11,2013-01-08 18:10:00,
2013-01-08 13:15:00,37.2,28.7,30.16,SE,135,0.0,1.3,71,0.00,,,-99.99,open2300 version1.11,2013-01-08 18:15:00,
2013-01-08 13:20:00,37.2,28.7,30.16,SE,135,0.0,0.0,71,0.00,,,-99.99,open2300 version1.11,2013-01-08 18:20:00,
2013-01-08 13:25:00,37.0,28.9,30.16,SE,135,0.0,0.0,72,0.00,,,-99.99,open2300 version1.11,2013-01-08 18:25:00,
2013-01-08 13:30:00,37.0,28.9,30.16,SE,135,0.1,3.6,72,0.00,,,-99.99,open2300 version1.11,2013-01-08 18:30:00,
2013-01-08 13:40:00,37.0,28.5,30.16,SE,135,0.3,6.3,71,0.00,,,-99.99,open2300 version1.11,2013-01-08 18:40:00,
2013-01-08 13:50:00,36.9,28.4,30.16,ESE,123,0.3,5.4,71,0.00,,,-99.99,open2300 version1.11,2013-01-08 18:50:00,
2013-01-08 13:55:00,36.9,28.4,30.16,SE,136,1.8,6.9,71,0.00,,,-99.99,open2300 version1.11,2013-01-08 18:55:00,
2013-01-08 14:00:00,36.9,28.4,30.16,SE,138,1.6,6.9,71,0.00,,,-99.99,open2300 version1.11,2013-01-08 19:00:00,
2013-01-08 14:05:00,36.9,28.4,30.16,SE,141,1.5,6.0,71,0.00,,,-99.99,open2300 version1.11,2013-01-08 19:05:00,
2013-01-08 14:15:00,36.9,28.4,30.16,SE,137,2.2,9.8,71,0.00,,,-99.99,open2300 version1.11,2013-01-08 19:15:00,
2013-01-08 14:20:00,36.7,28.2,30.16,SE,124,1.7,8.5,71,0.00,,,-99.99,open2300 version1.11,2013-01-08 19:20:00,
2013-01-08 14:25:00,36.7,28.2,30.16,SE,128,0.6,5.4,71,0.00,,,-99.99,open2300 version1.11,2013-01-08 19:25:00,
2013-01-08 14:30:00,36.7,28.2,30.17,SSE,147,1.3,7.4,71,0.00,,,-99.99,open2300 version1.11,2013-01-08 19:30:00,
2013-01-08 14:35:00,36.7,28.2,30.17,SSE,153,0.8,5.4,71,0.00,,,-99.99,open2300 version1.11,2013-01-08 19:35:00,
2013-01-08 14:45:00,36.7,28.2,30.17,SE,144,2.6,7.4,71,0.00,,,-99.99,open2300 version1.11,2013-01-08 19:45:00,
2013-01-08 14:50:00,36.7,28.2,30.17,SE,141,1.9,11.2,71,0.00,,,-99.99,open2300 version1.11,2013-01-08 19:50:00,
2013-01-08 14:55:00,36.7,28.2,30.17,ESE,112,0.0,0.0,71,0.00,,,-99.99,open2300 version1.11,2013-01-08 19:55:00,
2013-01-08 15:00:00,36.7,28.2,30.17,SSE,157,0.1,2.7,71,0.02,,,-99.99,open2300 version1.11,2013-01-08 20:00:00,
2013-01-08 15:10:00,36.9,28.4,30.17,SE,126,0.2,2.9,71,0.02,,,-99.99,open2300 version1.11,2013-01-08 20:10:00,
2013-01-08 15:15:00,36.7,28.2,30.17,SE,140,0.5,3.6,71,0.02,,,-99.99,open2300 version1.11,2013-01-08 20:15:00,
2013-01-08 15:20:00,37.0,28.5,30.17,SSE,160,0.6,4.5,71,0.02,,,-99.99,open2300 version1.11,2013-01-08 20:20:00,
2013-01-08 15:25:00,36.9,28.4,30.17,SE,142,0.2,3.6,71,0.02,,,-99.99,open2300 version1.11,2013-01-08 20:25:00,
2013-01-08 15:30:00,36.9,28.4,30.17,SE,135,0.0,0.0,71,0.02,,,-99.99,open2300 version1.11,2013-01-08 20:30:00,
2013-01-08 15:35:00,37.0,28.5,30.16,SE,140,0.2,3.4,71,0.02,,,-99.99,open2300 version1.11,2013-01-08 20:35:00,
2013-01-08 15:40:00,37.0,28.5,30.16,SE,135,0.1,2.7,71,0.02,,,-99.99,open2300 version1.11,2013-01-08 20:40:00,
2013-01-08 15:50:00,37.0,28.5,30.16,ESE,112,0.0,0.0,71,0.02,,,-99.99,open2300 version1.11,2013-01-08 20:50:00,
2013-01-08 15:55:00,36.9,28.7,30.17,SSE,150,0.5,4.5,72,0.02,,,-99.99,open2300 version1.11,2013-01-08 20:55:00,
2013-01-08 16:00:00,36.9,28.7,30.17,SSW,202,0.0,0.0,72,0.00,,,-99.99,open2300 version1.11,2013-01-08 21:00:00,
2013-01-08 16:05:00,36.7,28.5,30.17,SE,146,0.2,3.8,72,0.00,,,-99.99,open2300 version1.11,2013-01-08 21:05:00,
2013-01-08 16:10:00,36.7,28.5,30.17,SE,135,0.0,1.3,72,0.00,,,-99.99,open2300 version1.11,2013-01-08 21:10:00,
2013-01-08 16:15:00,36.3,28.1,30.17,SE,146,0.5,4.9,72,0.00,,,-99.99,open2300 version1.11,2013-01-08 21:15:00,
2013-01-08 16:20:00,36.3,28.1,30.17,ESE,112,0.1,2.7,72,0.00,,,-99.99,open2300 version1.11,2013-01-08 21:20:00,
2013-01-08 16:25:00,36.3,28.1,30.17,ESE,123,1.0,7.4,72,0.00,,,-99.99,open2300 version1.11,2013-01-08 21:25:00,
2013-01-08 16:30:00,36.3,28.1,30.17,SSE,157,0.1,3.1,72,0.00,,,-99.99,open2300 version1.11,2013-01-08 21:30:00,
2013-01-08 16:35:00,36.1,28.0,30.17,SSE,154,0.4,6.0,72,0.00,,,-99.99,open2300 version1.11,2013-01-08 21:35:00,
2013-01-08 16:40:00,36.0,27.8,30.17,East,90,0.0,0.0,72,0.00,,,-99.99,open2300 version1.11,2013-01-08 21:40:00,
2013-01-08 16:45:00,35.8,27.6,30.17,East,90,0.0,0.0,72,0.00,,,-99.99,open2300 version1.11,2013-01-08 21:45:00,
2013-01-08 16:55:00,35.2,27.4,30.17,ESE,117,0.9,7.4,73,0.00,,,-99.99,open2300 version1.11,2013-01-08 21:55:00,
2013-01-08 17:00:00,35.2,27.4,30.17,SE,128,1.3,5.8,73,0.00,,,-99.99,open2300 version1.11,2013-01-08 22:00:00,
2013-01-08 17:05:00,34.7,26.9,30.17,ESE,122,0.3,4.2,73,0.00,,,-99.99,open2300 version1.11,2013-01-08 22:05:00,
2013-01-08 17:10:00,34.5,26.7,30.16,SSE,150,0.5,4.7,73,0.00,,,-99.99,open2300 version1.11,2013-01-08 22:10:00,
2013-01-08 17:15:00,34.3,26.5,30.17,SE,135,0.1,1.3,73,0.00,,,-99.99,open2300 version1.11,2013-01-08 22:15:00,
2013-01-08 17:25:00,33.8,25.9,30.16,SE,135,0.0,0.0,73,0.00,,,-99.99,open2300 version1.11,2013-01-08 22:25:00,
2013-01-08 17:30:00,33.6,26.1,30.17,SE,135,0.1,2.0,74,0.00,,,-99.99,open2300 version1.11,2013-01-08 22:30:00,
2013-01-08 17:35:00,33.4,25.9,30.17,SE,135,0.0,0.0,74,0.00,,,-99.99,open2300 version1.11,2013-01-08 22:35:00,
2013-01-08 17:45:00,32.9,25.5,30.17,SE,135,0.0,0.0,74,0.00,,,-99.99,open2300 version1.11,2013-01-08 22:45:00,
2013-01-08 17:55:00,32.5,25.5,30.17,SE,135,0.0,0.0,75,0.00,,,-99.99,open2300 version1.11,2013-01-08 22:55:00,
2013-01-08 18:05:00,32.2,25.1,30.17,SE,135,0.0,0.0,75,0.00,,,-99.99,open2300 version1.11,2013-01-08 23:05:00,
2013-01-08 18:10:00,32.0,25.0,30.17,SE,135,0.0,0.0,75,0.00,,,-99.99,open2300 version1.11,2013-01-08 23:10:00,
2013-01-08 18:20:00,31.6,24.6,30.16,SE,135,0.0,0.0,75,0.00,,,-99.99,open2300 version1.11,2013-01-08 23:20:00,
2013-01-08 18:30:00,31.6,24.9,30.17,SE,135,0.0,0.0,76,0.00,,,-99.99,open2300 version1.11,2013-01-08 23:30:00,
2013-01-08 18:35:00,31.3,24.6,30.17,SE,135,0.0,0.0,76,0.00,,,-99.99,open2300 version1.11,2013-01-08 23:35:00,
2013-01-08 18:40:00,31.3,24.6,30.17,SE,135,0.0,0.0,76,0.00,,,-99.99,open2300 version1.11,2013-01-08 23:40:00,
2013-01-08 18:45:00,31.3,24.6,30.17,SE,135,0.0,0.0,76,0.00,,,-99.99,open2300 version1.11,2013-01-08 23:45:00,
2013-01-08 18:50:00,30.9,24.2,30.17,SE,135,0.0,0.0,76,0.00,,,-99.99,open2300 version1.11,2013-01-08 23:50:00,
2013-01-08 18:55:00,30.9,24.6,30.17,SE,135,0.0,0.0,77,0.00,,,-99.99,open2300 version1.11,2013-01-08 23:55:00,
2013-01-08 19:00:00,30.7,24.4,30.17,SE,135,0.0,0.0,77,0.00,,,-99.99,open2300 version1.11,2013-01-09 00:00:00,
2013-01-08 19:05:00,30.6,24.2,30.17,SE,135,0.0,0.0,77,0.00,,,-99.99,open2300 version1.11,2013-01-09 00:05:00,
2013-01-08 19:10:00,30.6,24.2,30.17,SE,135,0.0,0.0,77,0.00,,,-99.99,open2300 version1.11,2013-01-09 00:10:00,
2013-01-08 19:15:00,30.4,24.0,30.16,SE,135,0.0,0.0,77,0.00,,,-99.99,open2300 version1.11,2013-01-09 00:15:00,
2013-01-08 19:20:00,30.0,23.6,30.16,SE,135,0.0,0.0,77,0.00,,,-99.99,open2300 version1.11,2013-01-09 00:20:00,
2013-01-08 19:25:00,30.0,24.0,30.16,SE,135,0.0,0.0,78,0.00,,,-99.99,open2300 version1.11,2013-01-09 00:25:00,
2013-01-08 19:35:00,29.8,23.8,30.16,SE,135,0.0,0.0,78,0.00,,,-99.99,open2300 version1.11,2013-01-09 00:35:00,
2013-01-08 19:40:00,29.7,23.6,30.16,SE,135,0.0,0.0,78,0.00,,,-99.99,open2300 version1.11,2013-01-09 00:40:00,
2013-01-08 19:45:00,29.5,23.1,30.16,SE,135,0.0,0.0,77,0.00,,,-99.99,open2300 version1.11,2013-01-09 00:45:00,
2013-01-08 19:50:00,29.3,23.3,30.16,SSW,202,0.0,0.0,78,0.00,,,-99.99,open2300 version1.11,2013-01-09 00:50:00,
2013-01-08 19:55:00,29.1,23.1,30.16,SE,135,0.0,0.0,78,0.00,,,-99.99,open2300 version1.11,2013-01-09 00:55:00,
2013-01-08 20:05:00,29.1,23.1,30.16,SW,225,0.0,0.0,78,0.00,,,-99.99,open2300 version1.11,2013-01-09 01:05:00,
2013-01-08 20:10:00,28.9,23.2,30.16,SW,225,0.0,0.0,79,0.00,,,-99.99,open2300 version1.11,2013-01-09 01:10:00,
2013-01-08 20:15:00,29.1,23.4,30.16,NE,45,0.0,0.0,79,0.00,,,-99.99,open2300 version1.11,2013-01-09 01:15:00,
2013-01-08 20:20:00,28.9,23.2,30.16,NE,45,0.0,0.0,79,0.00,,,-99.99,open2300 version1.11,2013-01-09 01:20:00,
2013-01-08 20:25:00,28.9,23.2,30.16,SE,135,0.0,0.0,79,0.00,,,-99.99,open2300 version1.11,2013-01-09 01:25:00,
2013-01-08 20:35:00,29.1,23.7,30.16,ESE,112,0.0,0.0,80,0.00,,,-99.99,open2300 version1.11,2013-01-09 01:35:00,
2013-01-08 20:40:00,29.1,23.7,30.15,ESE,112,0.0,0.0,80,0.00,,,-99.99,open2300 version1.11,2013-01-09 01:40:00,
2013-01-08 20:45:00,29.1,23.7,30.15,SW,225,0.0,0.0,80,0.00,,,-99.99,open2300 version1.11,2013-01-09 01:45:00,
2013-01-08 20:55:00,29.1,23.7,30.15,SW,225,0.0,0.0,80,0.00,,,-99.99,open2300 version1.11,2013-01-09 01:55:00,
2013-01-08 21:00:00,29.1,23.7,30.15,SW,225,0.0,0.0,80,0.00,,,-99.99,open2300 version1.11,2013-01-09 02:00:00,
2013-01-08 21:10:00,28.9,23.5,30.15,South,180,0.0,0.0,80,0.00,,,-99.99,open2300 version1.11,2013-01-09 02:10:00,
2013-01-08 21:20:00,28.9,23.8,30.15,East,90,0.0,0.0,81,0.00,,,-99.99,open2300 version1.11,2013-01-09 02:20:00,
2013-01-08 21:30:00,29.1,24.0,30.14,East,90,0.0,0.0,81,0.00,,,-99.99,open2300 version1.11,2013-01-09 02:30:00,
2013-01-08 21:40:00,29.1,24.0,30.14,ESE,112,0.0,0.0,81,0.00,,,-99.99,open2300 version1.11,2013-01-09 02:40:00,
2013-01-08 21:45:00,29.1,24.0,30.13,SE,135,0.0,0.0,81,0.00,,,-99.99,open2300 version1.11,2013-01-09 02:45:00,
2013-01-08 21:50:00,29.1,24.0,30.13,SE,135,0.0,0.0,81,0.00,,,-99.99,open2300 version1.11,2013-01-09 02:50:00,
2013-01-08 22:00:00,28.9,23.8,30.13,SE,135,0.0,0.0,81,0.00,,,-99.99,open2300 version1.11,2013-01-09 03:00:00,
2013-01-08 22:10:00,28.8,23.6,30.13,SE,135,0.0,0.0,81,0.00,,,-99.99,open2300 version1.11,2013-01-09 03:10:00,
2013-01-08 22:15:00,28.6,23.5,30.14,SE,135,0.0,0.0,81,0.00,,,-99.99,open2300 version1.11,2013-01-09 03:15:00,
2013-01-08 22:25:00,28.2,23.1,30.13,SE,135,0.0,0.0,81,0.00,,,-99.99,open2300 version1.11,2013-01-09 03:25:00,
2013-01-08 22:35:00,28.2,23.1,30.14,SE,135,0.0,0.0,81,0.00,,,-99.99,open2300 version1.11,2013-01-09 03:35:00,
2013-01-08 22:40:00,28.2,23.1,30.14,SE,135,0.0,0.0,81,0.00,,,-99.99,open2300 version1.11,2013-01-09 03:40:00,
2013-01-08 22:50:00,28.0,23.2,30.13,SE,135,0.0,0.0,82,0.00,,,-99.99,open2300 version1.11,2013-01-09 03:50:00,
2013-01-08 22:55:00,28.0,23.2,30.13,SE,135,0.0,0.0,82,0.00,,,-99.99,open2300 version1.11,2013-01-09 03:55:00,
2013-01-08 23:00:00,28.0,23.2,30.13,SE,135,0.0,0.0,82,0.00,,,-99.99,open2300 version1.11,2013-01-09 04:00:00,
2013-01-08 23:05:00,27.7,22.9,30.13,SE,135,0.0,0.0,82,0.00,,,-99.99,open2300 version1.11,2013-01-09 04:05:00,
2013-01-08 23:10:00,27.7,22.9,30.13,SE,135,0.0,0.0,82,0.00,,,-99.99,open2300 version1.11,2013-01-09 04:10:00,
2013-01-08 23:15:00,27.7,22.9,30.13,SE,135,0.0,0.0,82,0.00,,,-99.99,open2300 version1.11,2013-01-09 04:15:00,
2013-01-08 23:25:00,27.5,22.7,30.13,SE,135,0.0,0.0,82,0.00,,,-99.99,open2300 version1.11,2013-01-09 04:25:00,
2013-01-08 23:30:00,27.3,22.5,30.13,SE,135,0.0,0.0,82,0.00,,,-99.99,open2300 version1.11,2013-01-09 04:30:00,
2013-01-08 23:35:00,27.3,22.5,30.11,SE,135,0.0,0.0,82,0.00,,,-99.99,open2300 version1.11,2013-01-09 04:35:00,
2013-01-08 23:40:00,27.1,22.3,30.12,SE,135,0.0,0.0,82,0.00,,,-99.99,open2300 version1.11,2013-01-09 04:40:00,
2013-01-08 23:45:00,27.1,22.3,30.11,SE,135,0.0,0.0,82,0.00,,,-99.99,open2300 version1.11,2013-01-09 04:45:00,
2013-01-08 23:55:00,27.0,22.4,30.11,SE,135,0.0,0.0,83,0.00,,,-99.99,open2300 version1.11,2013-01-09 04:55:00,